Hourly Data Report for September 03, 2017

All times are specified in Local Standard Time (LST). Add 1 hour to adjust for Daylight Saving Time where and when it is observed.

ALGONQUIN PARK EAST GATE
ONTARIO

45°32'00.000" N
78°16'00.000" W
397.00 m
6080192
71581
TNK

Download Data

Hourly Data (September 2017)
Hourly Data Report for September 3, 2017
Temp Definition
°C
Dew Point Temp Definition
°C
Rel Hum Definition
%
Wind Dir Definition
10's deg

Wind Spd Definition
km/h
Visibility Definition
km
Stn Press Definition
kPa
Hmdx Definition


Wind Chill Definition


Weather Definition


TIME
00:00 9.7 7.5 86   0   96.80     LegendNANA
01:00 10.0 8.6 91   0   96.77     LegendNANA
02:00 10.1 8.9 92   0   96.70     LegendNANA
03:00 10.3 8.9 91 0 1   96.62     LegendNANA
04:00 10.3 8.9 91 9 1   96.53     LegendNANA
05:00 10.4 9.1 92 10 5   96.49     LegendNANA
06:00 10.5 9.2 92 10 5   96.44     LegendNANA
07:00 10.7 9.4 92 10 3   96.44     LegendNANA
08:00 11.2 9.9 92 12 4   96.38     LegendNANA
09:00 11.6 9.9 90 12 4   96.32     LegendNANA
10:00 12.0 10.3 90 14 3   96.28     LegendNANA
11:00 12.1 10.5 90 12 3   96.24     LegendNANA
12:00 12.2 10.6 90 11 3   96.20     LegendNANA
13:00 12.9 11.1 88 8 2   96.19     LegendNANA
14:00 13.0 11.3 89 12 1   96.18     LegendNANA
15:00 13.1 11.3 88 4 1   96.19     LegendNANA
16:00 13.4 11.9 91 26 4   96.20     LegendNANA
17:00 13.6 11.7 88 28 4   96.23     LegendNANA
18:00 13.0 10.9 87 29 3   96.25     LegendNANA
19:00 10.7 9.4 92   0   96.24     LegendNANA
20:00 9.4 8.2 92   0   96.28     LegendNANA
21:00 8.7 7.6 93 0 1   96.27     LegendNANA
22:00 8.3 7.3 94   0   96.26     LegendNANA
23:00 8.3 7.3 94   0   96.22     LegendNANA

Notes on Data Quality.

Legend

  • E = Estimated
  • M = Missing
  • NA = Not Available
  • ‡ = Partner data that is not subject to review by the National Climate Archives
Date modified: